Hourly Data Report for September 03, 2017

All times are specified in Local Standard Time (LST). Add 1 hour to adjust for Daylight Saving Time where and when it is observed.

BATHURST A
NEW BRUNSWICK

47°37'47.000" N
65°44'20.000" W
58.80 m
8100505
71574
ZBF

Download Data

Hourly Data (September 2017)
Hourly Data Report for September 3, 2017
Temp Definition
°C
Dew Point Temp Definition
°C
Rel Hum Definition
%
Wind Dir Definition
10's deg

Wind Spd Definition
km/h
Visibility Definition
km
Stn Press Definition
kPa
Hmdx Definition


Wind Chill Definition


Weather Definition


TIME
00:00 Legend Double Dagger 7.3 4.9 85 10 4 24.1 101.51     LegendNANA
01:00 Legend Double Dagger 5.7 4.4 91 24 5 24.1 101.53     LegendNANA
02:00 Legend Double Dagger 4.8 3.8 93 23 3 24.1 101.56     Clear
03:00 Legend Double Dagger 4.6 3.6 93 26 4 24.1 101.56     LegendNANA
04:00 Legend Double Dagger 4.0 3.2 95 26 6 12.9 101.59     LegendNANA
05:00 Legend Double Dagger 4.2 3.1 93 24 5 24.1 101.60     Clear
06:00 Legend Double Dagger 3.8 2.9 94 36 2 24.1 101.63     LegendNANA
07:00 Legend Double Dagger 5.1 4.0 93 36 2 24.1 101.65     LegendNANA
08:00 Legend Double Dagger 8.4 6.0 85 36 1 24.1 101.67     Mostly Cloudy
09:00 Legend Double Dagger 11.7 6.6 71 11 3 24.1 101.66     LegendNANA
10:00 Legend Double Dagger 14.3 8.1 66 36 2 24.1 101.64     LegendNANA
11:00 Legend Double Dagger 17.2 9.1 59 8 10 24.1 101.52     Mostly Cloudy
12:00 Legend Double Dagger 17.9 10.1 60 7 11 24.1 101.44     LegendNANA
13:00 Legend Double Dagger 18.0 10.8 62 5 10 24.1 101.35     LegendNANA
14:00 Legend Double Dagger 16.8 11.8 72 5 10 24.1 101.29     Mostly Cloudy
15:00 Legend Double Dagger 17.9 11.9 67 4 10 24.1 101.19     LegendNANA
16:00 Legend Double Dagger 19.0 12.6 66 5 7 24.1 101.11     LegendNANA
17:00 Legend Double Dagger 18.2 13.3 73 1 5 24.1 101.05     Mostly Cloudy
18:00 Legend Double Dagger 18.6 11.8 64 12 17 24.1 100.98     LegendNANA
19:00 Legend Double Dagger 16.9 10.9 67 13 13 24.1 100.90     LegendNANA
20:00 Legend Double Dagger 16.2 10.4 68 14 13 24.1 100.85     Mostly Cloudy
21:00 Legend Double Dagger 15.9 9.5 65 14 12 24.1 100.77     LegendNANA
22:00 Legend Double Dagger 15.2 9.1 67 15 7 24.1 100.67     LegendNANA
23:00 Legend Double Dagger 14.7 9.4 70 14 9 24.1 100.57     Mostly Cloudy

Notes on Data Quality.

Legend

  • E = Estimated
  • M = Missing
  • NA = Not Available
  • ‡ = Partner data that is not subject to review by the National Climate Archives
Date modified: